Winter Haven, FL

12:31 PM EST on February 27, 2017 (GMT -0500)
Winter Haven's-Gilbert

Weather History for KGIF - October, 2012

Change the Weather History Date:

Sunday, October 7, 2012

  Actual Average Record
Temperature  
Mean Temperature 80 °F -  
Max Temperature 88 °F 87 °F 94 °F (1951)
Min Temperature 72 °F 67 °F 56 °F (1979)
Cooling Degree Days 15    
Growing Degree Days 30 (Base 50)    
Moisture  
Dew Point 70 °F    
Average Humidity 78    
Maximum Humidity 93    
Minimum Humidity 51    
Precipitation  
Precipitation 0.00 in - - ()
Sea Level Pressure  
Sea Level Pressure 29.97 in    
Wind  
Wind Speed 4 mph (East)    
Max Wind Speed 20 mph    
Max Gust Speed 25 mph    
Visibility 10 miles    
Events Thunderstorm    
Averages and records for this station are not official NWS values.
T = Trace of Precipitation, MM = Missing Value Source: NWS Daily Summary

Daily Weather History Graph

Daily Weather History Graph

Search for Another Location

Airport or City:

Trip Planner

Search our weather history database for the weather conditions in past years. The results will help you decide how hot, cold, wet, or windy it might be!

Date:

Astronomy

Oct. 07, 2012 Rise Set
Actual Time 7:23 AM EDT 7:05 PM EDT
Civil Twilight 6:59 AM EDT 7:29 PM EDT
Nautical Twilight 6:32 AM EDT 7:56 PM EDT
Astronomical Twilight 6:05 AM EDT 8:23 PM EDT
Moon No Moon Rise 1:39 PM EDT (10/7)
Length of Visible Light 12h 29m
Length of Day
11h 42m
Waning Gibbous, 56% of the Moon is Illuminated
Oct 7
Waning Gibbous
Oct 8
Last Quarter
Oct 15
New
Oct 21
First Quarter
Oct 29
Full

Hourly Weather History & Observations

Time (EDT) Temp. Heat Index Dew Point Humidity Pressure Visibility Wind Dir Wind Speed Gust Speed Precip Events Conditions
12:53 AM 73.9 °F - 71.1 °F 91% 29.97 in 10.0 mi ESE 3.5 mph - N/A   Clear
1:53 AM 73.9 °F - 71.1 °F 91% 29.97 in 10.0 mi Calm Calm - N/A   Clear
2:53 AM 73.9 °F - 71.1 °F 91% 29.96 in 10.0 mi Calm Calm - N/A   Clear
3:53 AM 72.0 °F - 70.0 °F 93% 29.94 in 10.0 mi NE 3.5 mph - N/A   Clear
4:53 AM 73.0 °F - 71.1 °F 93% 29.94 in 10.0 mi North 3.5 mph - N/A   Clear
5:53 AM 73.0 °F - 71.1 °F 93% 29.95 in 10.0 mi Calm Calm - N/A   Clear
6:53 AM 72.0 °F - 70.0 °F 93% 29.96 in 10.0 mi NE 3.5 mph - N/A   Clear
7:53 AM 72.0 °F - 70.0 °F 93% 29.97 in 10.0 mi NE 3.5 mph - N/A   Clear
8:53 AM 75.9 °F - 72.0 °F 87% 29.98 in 10.0 mi ENE 5.8 mph - N/A   Clear
9:53 AM 75.9 °F - 72.0 °F 87% 29.99 in 10.0 mi East 3.5 mph - N/A   Clear
10:53 AM 79.0 °F - 71.1 °F 77% 30.00 in 10.0 mi ENE 4.6 mph - N/A   Clear
11:53 AM 81.0 °F 85.2 °F 72.0 °F 74% 30.01 in 10.0 mi ESE 4.6 mph - N/A   Clear
12:53 PM 82.0 °F 85.5 °F 69.1 °F 65% 30.00 in 10.0 mi East 5.8 mph - N/A   Clear
1:53 PM 86.0 °F 89.4 °F 68.0 °F 55% 29.98 in 10.0 mi East 5.8 mph - N/A   Clear
2:53 PM 86.0 °F 90.1 °F 69.1 °F 57% 29.95 in 10.0 mi ESE 8.1 mph - N/A   Clear
3:53 PM 88.0 °F 92.1 °F 69.1 °F 53% 29.93 in 10.0 mi ENE 5.8 mph - N/A   Clear
4:53 PM 88.0 °F 91.4 °F 68.0 °F 51% 29.93 in 10.0 mi ESE 8.1 mph - N/A   Clear
5:53 PM 84.9 °F 89.4 °F 70.0 °F 61% 29.94 in 10.0 mi SE 19.6 mph 25.3 mph N/A   Partly Cloudy
6:37 PM 79.0 °F - 70.0 °F 74% 29.96 in 10.0 mi SE 6.9 mph - N/A Thunderstorm Scattered Clouds
6:53 PM 79.0 °F - 69.1 °F 72% 29.96 in 10.0 mi SE 5.8 mph - N/A   Partly Cloudy
7:53 PM 77.0 °F - 69.1 °F 76% 29.97 in 10.0 mi SSE 4.6 mph - N/A   Clear
8:53 PM 77.0 °F - 70.0 °F 79% 30.00 in 10.0 mi Calm Calm - N/A   Clear
9:53 PM 77.0 °F - 71.1 °F 82% 30.00 in 10.0 mi South 6.9 mph - N/A   Clear
10:53 PM 75.9 °F - 71.1 °F 85% 30.00 in 10.0 mi South 3.5 mph - N/A   Clear
11:53 PM 75.9 °F - 70.0 °F 82% 30.01 in 10.0 mi Calm Calm - N/A   Clear